Tracking 29777 objects as of 7-Oct-2024
HD Live streaming from Space Station
objects crossing your sky now

SL-16 DEB

Track SL-16 DEB now!
10-day predictions


NORAD ID: 22336
Int'l Code: 1992-093Z
Perigee: 833.2 km
Apogee: 1,004.9 km
Inclination: 71.1 °
Period: 103.2 minutes
Semi major axis: 7290 km
RCS: 0.2247 m2 (medium)
Launch date: December 25, 1992
Source: Commonwealth of Independent States (former USSR) (CIS)
Launch site: TYURATAM MISSILE AND SPACE COMPLEX (TTMTR)

Note: This is SATELLITE DEBRIS
Your satellite tracking list
Your tracking list is empty




NASA's NSSDC Master Catalog

Two Line Element Set (TLE):
1 22336U 92093Z   24280.81106312  .00002926  00000-0  20901-2 0  9990
2 22336  71.1365  28.2078 0117789 217.5881 141.6958 13.94788736611304
Source of the keplerian elements: AFSPC